Douglas, WY

4:43 PM MDT on March 27, 2017 (GMT -0600)
Converse County

Weather History for KDGW - January, 2014

Change the Weather History Date:

Tuesday, January 21, 2014

  Actual Average Record
Temperature  
Mean Temperature 35 °F 25 °F  
Max Temperature 51 °F 39 °F 64 °F (2009)
Min Temperature 18 °F 12 °F -11 °F (2008)
Degree Days  
Heating Degree Days 30 40  
Month to date heating degree days 791 842  
Since 1 July heating degree days 3870 3931  
Cooling Degree Days 0 0  
Month to date cooling degree days 0 0  
Year to date cooling degree days 0 0  
Moisture  
Dew Point 14 °F    
Average Humidity 50    
Maximum Humidity 84    
Minimum Humidity 16    
Precipitation  
Precipitation 0.00 in 0.01 in 0.04 in (2008)
Month to date precipitation 0.19 0.21  
Year to date precipitation 0.19 0.21  
Sea Level Pressure  
Sea Level Pressure 30.21 in    
Wind  
Wind Speed 12 mph (NW)    
Max Wind Speed 29 mph    
Max Gust Speed 35 mph    
Visibility 10 miles    
Events      
T = Trace of Precipitation, MM = Missing Value Source: NWS Daily Summary

Daily Weather History Graph

Daily Weather History Graph

Search for Another Location

Airport or City:

Trip Planner

Search our weather history database for the weather conditions in past years. The results will help you decide how hot, cold, wet, or windy it might be!

Date:

Astronomy

Jan. 21, 2014 Rise Set
Actual Time 7:25 AM MST 5:00 PM MST
Civil Twilight 6:54 AM MST 5:31 PM MST
Nautical Twilight 6:20 AM MST 6:05 PM MST
Astronomical Twilight 5:46 AM MST 6:39 PM MST
Moon 10:45 PM MST (1/21) 9:48 AM MST (1/21)
Length of Visible Light 10h 36m
Length of Day
9h 34m
Waning Gibbous, 74% of the Moon is Illuminated
Jan 21
Waning Gibbous
Jan 23
Last Quarter
Jan 30
New
Feb 6
First Quarter
Feb 14
Full

Hourly Weather History & Observations

Time (MST) Temp. Windchill Dew Point Humidity Pressure Visibility Wind Dir Wind Speed Gust Speed Precip Events Conditions
12:53 AM 21.9 °F - 18.0 °F 85% 30.30 in 10.0 mi Calm Calm - N/A   Clear
1:53 AM 19.0 °F - 15.1 °F 85% 30.30 in 10.0 mi Calm Calm - N/A   Clear
2:53 AM 26.1 °F 17.6 °F 15.1 °F 63% 30.26 in 10.0 mi NW 8.1 mph - N/A   Clear
3:53 AM 30.9 °F 22.2 °F 12.9 °F 47% 30.20 in 10.0 mi NW 10.4 mph - N/A   Clear
4:53 AM 30.9 °F 22.8 °F 12.9 °F 47% 30.21 in 10.0 mi NW 9.2 mph - N/A   Clear
5:53 AM 33.1 °F 24.4 °F 12.0 °F 42% 30.20 in 10.0 mi NW 11.5 mph - N/A   Clear
6:53 AM 34.0 °F 23.8 °F 10.0 °F 37% 30.22 in 10.0 mi NNW 16.1 mph - N/A   Clear
7:53 AM 33.1 °F 23.0 °F 10.0 °F 38% 30.24 in 10.0 mi NW 15.0 mph - N/A   Clear
8:53 AM 37.9 °F 29.2 °F 10.9 °F 33% 30.24 in 10.0 mi NW 15.0 mph - N/A   Clear
9:53 AM 44.1 °F 35.9 °F 9.0 °F 24% 30.24 in 10.0 mi NW 19.6 mph - N/A   Clear
10:53 AM 48.0 °F - 7.0 °F 19% 30.23 in 10.0 mi WNW 25.3 mph 32.2 mph N/A   Clear
11:53 AM 51.1 °F - 7.0 °F 17% 30.20 in 10.0 mi NW 21.9 mph 27.6 mph N/A   Clear
12:53 PM 51.1 °F - 7.0 °F 17% 30.17 in 10.0 mi NW 25.3 mph 32.2 mph N/A   Clear
1:53 PM 50.0 °F - 9.0 °F 19% 30.17 in 10.0 mi NW 17.3 mph - N/A   Clear
2:53 PM 48.0 °F - 12.9 °F 24% 30.16 in 10.0 mi NNW 18.4 mph - N/A   Clear
3:53 PM 45.0 °F 38.5 °F 17.1 °F 33% 30.15 in 10.0 mi North 13.8 mph - N/A   Clear
4:53 PM 39.9 °F 32.1 °F 19.0 °F 43% 30.19 in 10.0 mi North 13.8 mph - N/A   Clear
5:53 PM 37.9 °F 31.5 °F 17.1 °F 43% 30.20 in 10.0 mi NW 9.2 mph - N/A   Clear
6:53 PM 34.0 °F 26.6 °F 19.0 °F 54% 30.22 in 10.0 mi NNW 9.2 mph - N/A   Clear
7:53 PM 28.9 °F - 19.0 °F 67% 30.25 in 10.0 mi Calm Calm - N/A   Clear
8:53 PM 28.0 °F 24.2 °F 19.0 °F 69% 30.23 in 10.0 mi NW 3.5 mph - N/A   Mostly Cloudy
9:53 PM 28.0 °F - 19.0 °F 69% 30.21 in 10.0 mi North - - N/A   Mostly Cloudy
10:53 PM 28.0 °F 20.0 °F 19.0 °F 69% 30.19 in 10.0 mi NW 8.1 mph - N/A   Partly Cloudy
11:53 PM 26.1 °F 19.4 °F 19.0 °F 75% 30.18 in 10.0 mi NW 5.8 mph - N/A   Clear